sat.trackr.live / text

‹ back to catalog

STARLINK-35225

NORAD 65626 · 2025-210E

PAYLOAD ACTIVE UNKNOWN

§ Identity

Operator
Country
US
Launch date
2025-09-18
Launch site
AFETR
Launch vehicle
Mass (kg)
RCS (m²)

Purposes: comms

External: N2YO · Heavens-Above · Gunter

§ Orbital elements

Epoch: 2026-05-25T03:58:07.759776Z

Period
93.85 min
Inclination
53.1603°
Eccentricity
0.0001931
Mean motion
15.34393773 rev/d
Perigee alt
461.4 km
Apogee alt
464.0 km
Semi-major
6,840.9 km
B*
1.3352e-3
RAAN
310.8834°
Arg perigee
91.4637°
Mean anomaly
268.6587°
Rev number
3,945

§ Raw data

STARLINK-352251 65626U 25210E   26145.16536759  .00045000  00000+0  13352-2 0  99992 65626  53.1603 310.8834 0001931  91.4637 268.6587 15.34393773 39454

JSON: /api/v1/satellites/65626 · /tle

For live sub-satellite position, see the globe view (requires WebGL).

§ Visibility from observer

Set your observer location to see the next 7 days of passes ≥ 10°. The values pass through the URL so the page stays shareable.

No JS? Fill the form by hand. The geolocation button needs JavaScript.